TimePDT,TemperatureF,Dew PointF,Humidity,Sea Level PressureIn,VisibilityMPH,Wind Direction,Wind SpeedMPH,Gust SpeedMPH,PrecipitationIn,Events,Conditions,WindDirDegrees,DateUTC
12:52 AM,80.1,21.0,11,29.80,10.0,NNW,10.4,-,N/A,,Clear,340,2014-04-11 07:52:00
1:52 AM,71.1,26.1,19,29.79,10.0,SSE,5.8,-,N/A,,Clear,160,2014-04-11 08:52:00
2:52 AM,66.0,28.9,25,29.78,10.0,SSE,4.6,-,N/A,,Clear,160,2014-04-11 09:52:00
3:52 AM,69.1,30.9,24,29.77,10.0,WNW,4.6,-,N/A,,Clear,290,2014-04-11 10:52:00
4:52 AM,70.0,36.0,29,29.78,10.0,SSE,6.9,-,N/A,,Clear,160,2014-04-11 11:52:00
5:52 AM,70.0,39.0,32,29.80,10.0,Calm,Calm,-,N/A,,Clear,0,2014-04-11 12:52:00
6:52 AM,66.0,39.9,38,29.86,10.0,WSW,5.8,-,N/A,,Clear,250,2014-04-11 13:52:00
7:52 AM,70.0,45.0,41,29.84,10.0,Calm,Calm,-,N/A,,Clear,0,2014-04-11 14:52:00
8:52 AM,75.9,44.1,32,29.83,10.0,North,4.6,-,N/A,,Clear,360,2014-04-11 15:52:00
9:52 AM,84.0,37.0,19,29.84,10.0,Variable,4.6,-,N/A,,Clear,0,2014-04-11 16:52:00
10:52 AM,90.0,32.0,13,29.83,10.0,SSE,9.2,-,N/A,,Clear,160,2014-04-11 17:52:00
11:52 AM,89.1,28.0,11,29.83,10.0,SE,13.8,-,N/A,,Clear,140,2014-04-11 18:52:00
12:52 PM,90.0,24.1,9,29.79,10.0,Variable,5.8,-,N/A,,Clear,0,2014-04-11 19:52:00
1:52 PM,93.9,21.0,7,29.77,10.0,SSE,8.1,17.3,N/A,,Clear,150,2014-04-11 20:52:00
2:52 PM,93.0,18.0,6,29.74,10.0,Variable,3.5,-,N/A,,Clear,0,2014-04-11 21:52:00
3:52 PM,93.9,18.0,6,29.70,10.0,Variable,4.6,-,N/A,,Clear,0,2014-04-11 22:52:00
4:52 PM,95.0,19.0,6,29.68,10.0,South,5.8,-,N/A,,Clear,170,2014-04-11 23:52:00
5:52 PM,91.9,24.1,9,29.68,10.0,SSE,4.6,-,N/A,,Clear,150,2014-04-12 00:52:00
6:52 PM,90.0,14.0,6,29.70,9.0,West,10.4,-,N/A,,Clear,270,2014-04-12 01:52:00
7:52 PM,87.1,15.1,7,29.68,10.0,NW,12.7,23.0,N/A,,Clear,320,2014-04-12 02:52:00
8:52 PM,82.0,17.1,9,29.70,10.0,North,9.2,-,N/A,,Clear,350,2014-04-12 03:52:00
9:52 PM,81.0,19.9,10,29.70,10.0,NNW,15.0,-,N/A,,Clear,340,2014-04-12 04:52:00
10:52 PM,78.1,17.1,10,29.70,10.0,NNW,12.7,-,N/A,,Clear,330,2014-04-12 05:52:00
11:52 PM,77.0,15.1,10,29.72,10.0,NNW,10.4,-,N/A,,Clear,330,2014-04-12 06:52:00